• Join FlightAware (Why Join?)
  • Login
  • US Flag 
12:48PM EDT


 

Airport Tracker/Info


-or-


 

Live Flight TrackerFlight Track Log ✈ SKQ45 ✈ 16-Apr-2013 ✈ KSTL - KOSU

Flight Track Log - Related Links

Times and Time Zones

All times are in EDT time to prevent confusion due to time zone crossing. See the SKQ45 flight status page for this flight to view local times or setup timezone preferences in your user account.

Time Position Orientation Groundspeed Altitude Reporting Facility
EDT Latitude Longitude Course Direction KTS MPH feet Rate Location/Type
12:35AM 38.7472 -90.2211 41° Northeast 151 174 2,900  Level FAA TRACON SMA TRACON (SMA)
12:35AM 38.7494 -90.2031 81° East 163 188 3,200 1,500 Climbing FAA TRACON SMA TRACON (SMA)
12:35AM 38.7542 -90.1811 75° East 168 193 4,000 2,160 Climbing FAA TRACON SMA TRACON (SMA)
12:36AM 38.7586 -90.1639 72° East 167 192 4,500 1,440 Climbing FAA TRACON SMA TRACON (SMA)
12:36AM 38.7636 -90.1461 70° East 170 196 4,900 1,500 Climbing FAA TRACON SMA TRACON (SMA)
12:36AM 38.7689 -90.1225 74° East 178 205 5,500 1,620 Climbing FAA TRACON SMA TRACON (SMA)
12:37AM 38.7728 -90.1039 75° East 179 206 6,000 1,500 Climbing FAA TRACON SMA TRACON (SMA)
12:37AM 38.7769 -90.0847 74° East 179 206 6,500 1,500 Climbing FAA TRACON SMA TRACON (SMA)
12:37AM 38.7817 -90.0611 76° East 179 206 7,000 1,500 Climbing FAA TRACON SMA TRACON (SMA)
12:38AM 38.7861 -90.0419 73° East 180 207 7,500 1,500 Climbing FAA TRACON SMA TRACON (SMA)
12:38AM 38.7900 -90.0231 75° East 181 208 8,000 1,620 Climbing FAA TRACON SMA TRACON (SMA)
12:38AM 38.7956 -89.9992 73° East 181 208 8,600 1,800 Climbing FAA TRACON SMA TRACON (SMA)
12:39AM 38.8000 -89.9800 73° East 183 211 9,200 1,500 Climbing FAA TRACON SMA TRACON (SMA)
12:39AM 38.8042 -89.9608 74° East 183 211 9,600 1,500 Climbing FAA TRACON SMA TRACON (SMA)
12:39AM 38.8092 -89.9361 75° East 184 212 10,200 1,320 Climbing FAA TRACON SMA TRACON (SMA)
12:40AM 39.0574 -90.0064 41° Northeast  Level FlightAware Approximate
12:40AM 38.8139 -89.9167 73° East 186 214 10,500  Level FAA TRACON SMA TRACON (SMA)
12:40AM 38.8186 -89.8953 74° East 197 227 10,700 900 Climbing FAA TRACON SMA TRACON (SMA)
12:40AM 38.8244 -89.8675 75° East 211 243 11,100 900 Climbing FAA TRACON SMA TRACON (SMA)
12:41AM 38.8292 -89.8442 75° East 218 251 11,300 720 Climbing FAA TRACON SMA TRACON (SMA)
12:41AM 38.8342 -89.8208 75° East 221 254 11,600 1,020 Climbing FAA TRACON SMA TRACON (SMA)
12:41AM 38.8408 -89.7914 74° East 223 257 12,000 1,020 Climbing FAA TRACON SMA TRACON (SMA)
12:42AM 38.8464 -89.7678 73° East 225 259 12,300 1,140 Climbing FAA TRACON SMA TRACON (SMA)
12:42AM 38.8514 -89.7442 75° East 223 257 12,800 1,320 Climbing FAA TRACON SMA TRACON (SMA)
12:42AM 38.8572 -89.7153 75° East 218 251 13,200 1,200 Climbing FAA TRACON SMA TRACON (SMA)
12:43AM 38.8631 -89.6928 72° East 217 250 13,600 1,140 Climbing FAA TRACON SMA TRACON (SMA)
12:43AM 38.8681 -89.6697 74° East 219 252 14,000 1,020 Climbing FAA TRACON SMA TRACON (SMA)
12:43AM 38.8744 -89.6406 74° East 219 252 14,300 1,020 Climbing FAA TRACON SMA TRACON (SMA)
12:44AM 38.8789 -89.6169 76° East 223 257 14,700 1,020 Climbing FAA TRACON SMA TRACON (SMA)
12:44AM 38.8842 -89.5936 74° East 222 255 15,000 1,020 Climbing FAA TRACON SMA TRACON (SMA)
12:44AM 38.8908 -89.5642 74° East 223 257 15,400 1,020 Climbing FAA TRACON SMA TRACON (SMA)
12:45AM 38.8961 -89.5403 74° East 225 259 15,700 840 Climbing FAA TRACON SMA TRACON (SMA)
12:45AM 38.9008 -89.5158 76° East 227 261 16,000 780 Climbing FAA TRACON SMA TRACON (SMA)
12:45AM 38.9086 -89.4864 71° East 229 264 16,300 960 Climbing FAA TRACON SMA TRACON (SMA)
12:46AM 38.9156 -89.4561 74° East 229 264 16,700 960 Climbing FAA TRACON SMA TRACON (SMA)
12:46AM 38.9181 -89.4375 80° East 228 262 16,900 780 Climbing FAA TRACON SMA TRACON (SMA)
12:46AM 38.9253 -89.4075 73° East 229 264 17,200 900 Climbing FAA TRACON SMA TRACON (SMA)
12:47AM 38.9297 -89.3831 77° East 229 264 17,500 720 Climbing FAA TRACON SMA TRACON (SMA)
12:47AM 38.9356 -89.3594 72° East 226 260 17,700 600 Climbing FAA TRACON SMA TRACON (SMA)
12:47AM 38.9428 -89.3292 73° East 229 264 17,900 600 Climbing FAA TRACON SMA TRACON (SMA)
12:48AM 38.9475 -89.3053 76° East 229 264 18,100 720 Climbing FAA TRACON SMA TRACON (SMA)
12:48AM 38.9522 -89.2806 76° East 231 266 18,400 720 Climbing FAA TRACON SMA TRACON (SMA)
12:48AM 38.9597 -89.2500 72° East 231 266 18,600 720 Climbing FAA TRACON SMA TRACON (SMA)
12:49AM 38.9644 -89.2253 76° East 234 269 18,900 720 Climbing FAA TRACON SMA TRACON (SMA)
12:49AM 38.9711 -89.2003 71° East 237 273 19,100 900 Climbing FAA TRACON SMA TRACON (SMA)
12:49AM 38.9756 -89.1689 80° East 235 270 19,500 900 Climbing FAA TRACON SMA TRACON (SMA)
12:50AM 38.9836 -89.1444 67° East 238 274 19,700 600 Climbing FAA TRACON SMA TRACON (SMA)
12:50AM 38.9886 -89.1189 76° East 240 276 19,900 420 Climbing FAA TRACON SMA TRACON (SMA)
12:50AM 38.9897 -89.1058 84° East 239 275 20,000 600 Climbing FAA TRACON SMA TRACON (SMA)
12:51AM 39.0056 -89.0836 47° Northeast 244 281 20,600 720 Climbing Kansas City Center
12:52AM 39.0239 -88.9894 76° East 251 289 21,400 600 Climbing Kansas City Center
12:53AM 39.0425 -88.9150 72° East 252 290 21,900 480 Climbing Kansas City Center
12:54AM 39.0583 -88.8264 77° East 254 292 22,400 480 Climbing Kansas City Center
12:55AM 39.0775 -88.7358 75° East 258 297 22,900 480 Climbing Kansas City Center
12:56AM 39.0889 -88.6444 81° East 259 298 23,400 420 Climbing Kansas City Center
12:57AM 39.0889 -88.5483 90° East 260 299 23,800 360 Climbing Kansas City Center
12:58AM 39.0958 -88.4517 85° East 265 305 24,200 360 Climbing Kansas City Center
12:59AM 39.1364 -88.3708 57° Northeast 269 310 24,600 300 Climbing Kansas City Center
01:00AM 39.1794 -88.2933 54° Northeast 266 306 24,900 180 Climbing Kansas City Center
01:01AM 39.2236 -88.2144 54° Northeast 268 308 25,000  Climbing Kansas City Center
01:02AM 39.1950 -88.1319 114° Southeast 282 325 25,000  Level Kansas City Center
01:03AM 39.1289 -88.0931 155° Southeast 265 305 25,000  Level Kansas City Center
01:04AM 39.1011 -88.0806 161° South 261 300 25,000  Level Indianapolis Center
01:05AM 39.0300 -88.0569 166° South 262 302 25,000  Level Indianapolis Center
01:06AM 38.9603 -88.0292 163° South 261 300 25,000  Level Indianapolis Center
01:07AM 38.8919 -88.0008 162° South 258 297 25,000  Level Indianapolis Center
01:07AM 38.8561 -87.9689 145° Southeast 271 312 25,000  Level Kansas City Center
01:08AM 38.7819 -87.8994 144° Southeast 274 315 25,000  Level Kansas City Center
01:09AM 38.7250 -87.8322 137° Southeast 279 321 25,000  Level Kansas City Center
01:10AM 38.7131 -87.8178 137° Southeast 276 318 25,000  Level Indianapolis Center
01:11AM 38.6569 -87.7511 137° Southeast 276 318 25,000  Level Indianapolis Center
01:12AM 38.5953 -87.6900 142° Southeast 277 319 25,000  Level Indianapolis Center
01:13AM 38.5319 -87.6361 146° Southeast 274 315 25,000  Level Indianapolis Center
01:14AM 38.4689 -87.5825 146° Southeast 272 313 25,000  Level Indianapolis Center
01:15AM 38.4106 -87.5228 141° Southeast 270 311 25,000  Level Indianapolis Center
01:16AM 38.3511 -87.4611 141° Southeast 273 314 25,000  Level Indianapolis Center
01:17AM 38.3192 -87.3475 110° East 292 336 25,000  Level Indianapolis Center
01:18AM 38.3119 -87.2433 95° East 294 338 25,000  Level Indianapolis Center
01:19AM 38.3203 -87.1481 84° East 291 335 25,000  Level Indianapolis Center
01:20AM 38.3406 -87.0464 76° East 293 337 25,000  Level Indianapolis Center
01:21AM 38.3589 -86.9506 76° East 291 335 25,000  Level Indianapolis Center
01:22AM 38.3978 -86.8608 61° Northeast 290 334 25,000  Level Indianapolis Center
01:23AM 38.4406 -86.7744 58° Northeast 288 331 25,000  Level Indianapolis Center
01:24AM 38.4828 -86.6853 59° Northeast 292 336 25,000  Level Indianapolis Center
01:25AM 38.5233 -86.5972 59° Northeast 288 331 25,000  Level Indianapolis Center
01:26AM 38.5642 -86.5094 59° Northeast 286 329 25,000 -60 Level Indianapolis Center
01:27AM 38.6044 -86.4236 59° Northeast 283 326 24,900  Descending Indianapolis Center
01:28AM 38.6450 -86.3372 59° Northeast 282 325 25,000  Climbing Indianapolis Center
01:29AM 38.6853 -86.2497 59° Northeast 284 327 25,000  Level Indianapolis Center
01:30AM 38.7267 -86.1617 59° Northeast 287 330 25,000  Level Indianapolis Center
01:31AM 38.7669 -86.0711 60° Northeast 292 336 25,000  Level Indianapolis Center
01:32AM 38.8083 -85.9794 60° Northeast 295 339 25,000  Level Indianapolis Center
01:33AM 38.8508 -85.8897 59° Northeast 295 339 25,000  Level Indianapolis Center
01:34AM 38.8928 -85.7981 60° Northeast 296 341 25,000  Level Indianapolis Center
01:35AM 38.9328 -85.7072 60° Northeast 293 337 25,000  Level Indianapolis Center
01:36AM 38.9731 -85.6169 60° Northeast 290 334 25,000  Level Indianapolis Center
01:37AM 39.0156 -85.5281 58° Northeast 291 335 25,000  Level Indianapolis Center
01:38AM 39.0553 -85.4383 60° Northeast 290 334 25,000  Level Indianapolis Center
01:39AM 39.0956 -85.3486 60° Northeast 289 333 25,000  Level Indianapolis Center
01:40AM 39.1358 -85.2589 60° Northeast 287 330 25,000  Level Indianapolis Center
01:41AM 39.1783 -85.1619 60° Northeast 287 330 25,000  Level Indianapolis Center
01:42AM 39.2181 -85.0722 60° Northeast 285 328 25,000  Level Indianapolis Center
01:43AM 39.2592 -84.9828 59° Northeast 288 331 25,000  Level Indianapolis Center
01:44AM 39.2986 -84.8922 61° Northeast 288 331 25,000 -300 Level Indianapolis Center
01:45AM 39.3394 -84.8006 60° Northeast 291 335 24,400 -540 Descending Indianapolis Center
01:46AM 39.3750 -84.7164 61° Northeast 313 360 24,000 -900 Descending Indianapolis Center
01:47AM 39.4194 -84.6175 60° Northeast 315 362 22,700 -1,440 Descending Indianapolis Center
01:48AM 39.4653 -84.5156 60° Northeast 324 373 21,200 -1,560 Descending Indianapolis Center
01:49AM 39.5089 -84.4122 61° Northeast 324 373 19,600 -1,440 Descending Indianapolis Center
01:50AM 39.5522 -84.3153 60° Northeast 312 359 18,300 -1,260 Descending Indianapolis Center
01:51AM 39.5944 -84.2181 61° Northeast 308 354 17,100 -1,200 Descending Indianapolis Center
01:52AM 39.6367 -84.1197 61° Northeast 310 357 16,000 -1,140 Descending Indianapolis Center
01:53AM 39.6783 -84.0208 61° Northeast 309 356 14,900 -1,080 Descending Indianapolis Center
01:54AM 39.7189 -83.9275 61° Northeast 299 344 13,900 -1,020 Descending Indianapolis Center
01:55AM 39.7583 -83.8361 61° Northeast 288 331 12,900 -1,080 Descending Indianapolis Center
01:55AM 39.7889 -83.7653 61° Northeast 288 331 12,100 -1,020 Descending Indianapolis Center
01:56AM 39.7972 -83.7442 63° Northeast 288 331 11,900 -1,140 Descending Indianapolis Center
01:57AM 39.8319 -83.6619 61° Northeast 288 331 10,900 -1,140 Descending Indianapolis Center
01:58AM 39.8719 -83.5772 58° Northeast 275 316 9,900 -1,080 Descending Indianapolis Center
01:59AM 39.9153 -83.4983 54° Northeast 263 303 8,800 -1,200 Descending Indianapolis Center
02:00AM 39.9539 -83.4297 54° Northeast 226 260 7,600 -1,320 Descending Indianapolis Center
02:01AM 39.9881 -83.3603 57° Northeast 213 245 6,200 -1,440 Descending Indianapolis Center
02:02AM 40.0211 -83.3072 51° Northeast 167 192 4,800 -1,500 Descending Indianapolis Center
02:03AM 40.0469 -83.2694 48° Northeast 129 148 3,200 -960 Descending Indianapolis Center
02:04AM 40.0656 -83.2417 49° Northeast 114 131 2,900 -300 Descending Indianapolis Center
02:05AM 40.0708 -83.1958 81° East 135 155 2,600 -540 Descending Indianapolis Center
02:06AM 40.0742 -83.1500 85° East 131 151 1,900 -720 Descending Indianapolis Center
02:07AM 40.0753 -83.1011 88° East 135 155 1,200 -720 Descending Indianapolis Center
02:09AM 40.0667 -83.0667 57° Northeast  Level FlightAware Approximate